SKYNET 4E

Last updated on Fri Feb 27 2026 00:02:49 GMT+0000 (Coordinated Universal Time)

1 25639U 99009B 26057.16385373 -.00000245 00000+0 00000+0 0 9998 2 25639 11.9998 9.6943 0003899 280.5501 271.1308 0.99030454 50051
UTC large
Height (km)
Speed (km/s)
/
Latitude / Longitude
Inclination (degrees)
Orbital Period (minutes)
Azimuth
Elevation
Range (km)
Doppler Factor

Next 0 passes for location: London (51.5072 / 0.1276)

Sorry there are no passes over London.
SKYNET 4E